GW1458 Weather Reports


time (UTC)temp
F
wind
direction
speed
knots
gust
knots
rain 1hr
in
rain 24hr
in
rain mn
in
humidity
%
barometer
mb
20260906221534 85 310 7.8 19.1 0.00 0.00 0.00 34 1012.9
20260906221020 85 11 13.0 19.1 0.00 0.00 0.00 34 1012.7
20260906220520 86 4 7.0 14.8 0.00 0.00 0.00 33 1012.8
20260906220037 87 346 5.2 14.8 0.00 0.00 0.00 31 1013.1
20260906215516 87 333 5.2 14.8 0.00 0.00 0.00 32 1013.1
20260906215018 87 23 7.8 14.8 0.00 0.00 0.00 32 1013.1
20260906214539 87 24 8.7 16.5 0.00 0.00 0.00 31 1013.0
20260906214025 87 309 7.0 20.0 0.00 0.00 0.00 31 1012.9
20260906213520 87 280 5.2 20.0 0.00 0.00 0.00 31 1012.9
20260906213034 87 271 8.7 20.0 0.00 0.00 0.00 30 1013.2
20260906212517 87 297 8.7 19.1 0.00 0.00 0.00 31 1013.2
20260906212020 87 359 10.4 16.5 0.00 0.00 0.00 29 1013.3
20260906211542 86 341 9.6 20.9 0.00 0.00 0.00 29 1013.4
20260906211024 86 8 10.4 20.9 0.00 0.00 0.00 30 1013.6
20260906210520 87 12 12.2 20.9 0.00 0.00 0.00 29 1013.6
20260906210038 87 5 4.3 17.4 0.00 0.00 0.00 30 1013.7
20260906205520 87 10 5.2 20.0 0.00 0.00 0.00 28 1013.9
20260906205018 86 343 10.4 20.0 0.00 0.00 0.00 29 1014.0
20260906204539 87 358 6.1 18.2 0.00 0.00 0.00 30 1013.9
20260906204019 86 352 9.6 20.0 0.00 0.00 0.00 31 1014.0
20260906203520 85 345 13.0 20.0 0.00 0.00 0.00 30 1014.1
20260906203036 86 352 9.6 16.5 0.00 0.00 0.00 30 1014.2
20260906202520 86 349 8.7 18.2 0.00 0.00 0.00 31 1014.2
20260906202018 85 349 7.8 18.2 0.00 0.00 0.00 30 1014.2
20260906201535 85 349 11.3 18.2 0.00 0.00 0.00 30 1014.2
20260906201017 85 359 13.9 18.2 0.00 0.00 0.00 31 1014.2
20260906200520 85 338 8.7 14.8 0.00 0.00 0.00 32 1014.3
20260906200043 84 356 10.4 14.8 0.00 0.00 0.00 31 1014.4
20260906195520 85 27 3.5 9.6 0.00 0.00 0.00 30 1014.5
20260906195017 84 347 4.3 9.6 0.00 0.00 0.00 30 1014.6
20260906194536 84 53 2.6 9.6 0.00 0.00 0.00 32 1014.7
20260906194019 83 105 3.5 13.9 0.00 0.00 0.00 32 1014.7
20260906193518 83 37 7.8 13.9 0.00 0.00 0.00 33 1014.7
20260906193058 82 358 7.8 13.9 0.00 0.00 0.00 33 1014.7
20260906192520 83 354 7.0 12.2 0.00 0.00 0.00 33 1015.0
20260906192020 82 4 5.2 12.2 0.00 0.00 0.00 33 1015.1
20260906191539 82 32 7.8 12.2 0.00 0.00 0.00 33 1015.0
20260906191017 83 37 2.6 7.0 0.00 0.00 0.00 33 1015.2
20260906190520 82 355 1.7 9.6 0.00 0.00 0.00 34 1015.3
20260906190036 82 67 5.2 9.6 0.00 0.00 0.00 34 1015.4
20260906185519 82 352 2.6 7.8 0.00 0.00 0.00 33 1015.5
20260906185018 81 0 2.6 7.8 0.00 0.00 0.00 34 1015.6
20260906184543 81 65 2.6 7.8 0.00 0.00 0.00 34 1015.7
20260906184017 81 76 0.9 6.1 0.00 0.00 0.00 35 1015.9
20260906183518 80 357 2.6 6.1 0.00 0.00 0.00 37 1015.9
20260906183038 81 41 1.7 6.1 0.00 0.00 0.00 36 1015.9
20260906182521 80 0 1.7 4.3 0.00 0.00 0.00 37 1016.1
20260906182020 79 105 1.7 4.3 0.00 0.00 0.00 37 1016.2
20260906181550 80 257 1.7 5.2 0.00 0.00 0.00 37 1016.2
20260906181017 79 221 1.7 5.2 0.00 0.00 0.00 38 1016.3
20260906180518 78 166 0.9 8.7 0.00 0.00 0.00 38 1016.4
20260906180037 77 78 4.3 8.7 0.00 0.00 0.00 40 1016.5
20260906175520 77 73 4.3 8.7 0.00 0.00 0.00 39 1016.6
20260906175019 77 94 3.5 7.8 0.00 0.00 0.00 39 1016.8
20260906174541 77 104 2.6 7.0 0.00 0.00 0.00 40 1016.8
20260906174019 77 41 3.5 7.0 0.00 0.00 0.00 43 1016.9
20260906173524 77 80 1.7 4.3 0.00 0.00 0.00 42 1017.2
20260906173034 76 121 1.7 7.0 0.00 0.00 0.00 44 1017.2
20260906172517 75 149 0.9 7.8 0.00 0.00 0.00 45 1017.3
20260906172024 74 73 4.3 7.8 0.00 0.00 0.00 44 1017.5
20260906171535 74 13 5.2 7.8 0.00 0.00 0.00 45 1017.4
20260906171020 75 26 1.7 7.0 0.00 0.00 0.00 44 1017.5
20260906170521 74 185 1.7 7.8 0.00 0.00 0.00 45 1017.7
20260906170036 73 83 5.2 7.8 0.00 0.00 0.00 46 1017.6
20260906165601 73 12 1.7 9.6 0.00 0.00 0.00 46 1017.7
20260906165020 72 40 4.3 10.4 0.00 0.00 0.00 47 1017.7
20260906164540 73 54 6.1 10.4 0.00 0.00 0.00 46 1017.7
20260906164017 73 335 6.1 10.4 0.00 0.00 0.00 46 1017.8
20260906163517 72 23 2.6 9.6 0.00 0.00 0.00 48 1017.8
20260906163036 71 0 2.6 9.6 0.00 0.00 0.00 48 1017.9
20260906162523 72 8 4.3 9.6 0.00 0.00 0.00 48 1018.0
20260906162018 71 343 3.5 10.4 0.00 0.00 0.00 48 1017.9
20260906161536 70 46 5.2 10.4 0.00 0.00 0.00 49 1018.0
20260906161017 70 53 7.0 10.4 0.00 0.00 0.00 49 1017.9
20260906160517 71 4 6.1 10.4 0.00 0.00 0.00 48 1017.9
20260906160038 70 340 2.6 9.6 0.00 0.00 0.00 48 1018.0
20260906155518 71 14 4.3 9.6 0.00 0.00 0.00 49 1018.0
20260906155017 70 4 7.0 12.2 0.00 0.00 0.00 50 1017.9
20260906154541 70 352 4.3 12.2 0.00 0.00 0.00 50 1018.0
20260906154023 69 34 7.8 12.2 0.00 0.00 0.00 51 1017.9
20260906153517 69 343 5.2 10.4 0.00 0.00 0.00 51 1017.9
20260906153035 69 10 6.1 10.4 0.00 0.00 0.00 51 1017.8
20260906152526 68 5 6.1 10.4 0.00 0.00 0.00 51 1017.9
20260906152022 68 34 7.0 10.4 0.00 0.00 0.00 51 1017.8
20260906151540 68 22 5.2 7.8 0.00 0.00 0.00 51 1017.8
20260906151021 68 341 5.2 8.7 0.00 0.00 0.00 51 1017.9
20260906150518 68 339 6.1 8.7 0.00 0.00 0.00 51 1017.8
20260906150035 67 6 5.2 8.7 0.00 0.00 0.00 52 1017.8
20260906145519 67 22 6.1 8.7 0.00 0.00 0.00 52 1017.8
20260906145022 66 358 4.3 9.6 0.00 0.00 0.00 54 1017.9
20260906144547 66 345 6.1 10.4 0.00 0.00 0.00 55 1017.9
20260906144018 66 359 7.0 10.4 0.00 0.00 0.00 54 1017.9
20260906143520 66 359 6.1 8.7 0.00 0.00 0.00 53 1017.9
20260906143038 66 9 4.3 8.7 0.00 0.00 0.00 53 1018.0
20260906142517 66 311 3.5 8.7 0.00 0.00 0.00 53 1017.9
20260906142021 66 341 2.6 7.0 0.00 0.00 0.00 54 1018.0
20260906141538 66 30 2.6 6.1 0.00 0.00 0.00 54 1017.9
20260906141019 65 128 2.6 6.1 0.00 0.00 0.00 54 1017.8
20260906140519 65 169 2.6 5.2 0.00 0.00 0.00 54 1017.8
20260906140036 64 357 1.7 5.2 0.00 0.00 0.00 54 1017.8
20260906135520 63 342 1.7 5.2 0.00 0.00 0.00 56 1017.8
20260906135018 63 290 0.9 7.0 0.00 0.00 0.00 57 1017.8
20260906134535 63 129 2.6 7.0 0.00 0.00 0.00 55 1017.7
20260906134020 62 303 0.9 7.0 0.00 0.00 0.00 52 1017.8
20260906133518 61 321 3.5 8.7 0.00 0.00 0.00 53 1017.7
20260906133036 61 5 5.2 8.7 0.00 0.00 0.00 54 1017.8
20260906132517 61 344 0.9 2.6 0.00 0.00 0.00 53 1017.7
20260906132018 60 188 0.0 2.6 0.00 0.00 0.00 54 1017.5
20260906131538 59 326 0.0 2.6 0.00 0.00 0.00 55 1017.6
20260906131022 60 349 0.9 2.6 0.00 0.00 0.00 54 1017.5
20260906130522 61 349 0.9 2.6 0.00 0.00 0.00 54 1017.5
20260906130033 61 282 1.7 2.6 0.00 0.00 0.00 54 1017.6
20260906125520 60 330 0.9 1.7 0.00 0.00 0.00 55 1017.6
20260906125020 60 328 0.0 1.7 0.00 0.00 0.00 56 1017.5
20260906124542 60 287 0.9 2.6 0.00 0.00 0.00 56 1017.6
20260906124018 59 290 1.7 2.6 0.00 0.00 0.00 57 1017.5
20260906123517 59 286 1.7 2.6 0.00 0.00 0.00 57 1017.6
20260906123039 59 294 1.7 2.6 0.00 0.00 0.00 56 1017.6
20260906122516 59 275 0.9 1.7 0.00 0.00 0.00 57 1017.7
20260906122020 58 276 0.9 1.7 0.00 0.00 0.00 59 1017.8
20260906121536 58 275 0.9 0.9 0.00 0.00 0.00 59 1017.7
20260906121021 58 0 0.0 1.7 0.00 0.00 0.00 60 1017.6
20260906120518 58 231 0.9 1.7 0.00 0.00 0.00 59 1017.7
20260906120042 58 0 0.0 0.0 0.00 0.00 0.00 59 1017.7
20260906115518 58 0 0.0 0.9 0.00 0.00 0.00 58 1017.7
20260906115017 58 0 0.0 2.6 0.00 0.00 0.00 57 1017.7
20260906114546 59 243 0.9 2.6 0.00 0.00 0.00 57 1017.6
20260906114018 59 256 1.7 1.7 0.00 0.00 0.00 57 1017.6
20260906113518 58 259 0.9 0.9 0.00 0.00 0.00 57 1017.5
20260906113035 58 269 0.0 0.9 0.00 0.00 0.00 58 1017.5
20260906112516 58 0 0.0 0.9 0.00 0.00 0.00 58 1017.4
20260906112020 58 0 0.0 0.9 0.00 0.00 0.00 58 1017.5
20260906111540 58 0 0.0 0.0 0.00 0.00 0.00 58 1017.4
20260906111020 58 184 0.0 0.0 0.00 0.00 0.00 57 1017.5
20260906110520 58 0 0.0 0.0 0.00 0.00 0.00 57 1017.5
20260906110038 59 0 0.0 0.9 0.00 0.00 0.00 55 1017.3
20260906105520 59 0 0.0 2.6 0.00 0.00 0.00 56 1017.3
20260906105020 60 183 0.9 2.6 0.00 0.00 0.00 55 1017.3
20260906104546 60 211 1.7 2.6 0.00 0.00 0.00 54 1017.3
20260906104020 61 219 0.0 2.6 0.00 0.00 0.00 51 1017.2
20260906103518 61 0 0.0 0.0 0.00 0.00 0.00 51 1017.3
20260906103037 61 0 0.0 0.0 0.00 0.00 0.00 53 1017.3
20260906102516 61 0 0.0 0.0 0.00 0.00 0.00 53 1017.3
20260906102017 59 0 0.0 0.0 0.00 0.00 0.00 55 1017.3
20260906101535 59 0 0.0 0.0 0.00 0.00 0.00 56 1017.3
20260906101020 58 0 0.0 0.0 0.00 0.00 0.00 58 1017.4
20260906100520 58 0 0.0 0.0 0.00 0.00 0.00 56 1017.3
20260906100034 58 0 0.0 0.0 0.00 0.00 0.00 58 1017.4
20260906095524 58 0 0.0 0.0 0.00 0.00 0.00 59 1017.5
20260906095019 59 0 0.0 0.0 0.00 0.00 0.00 57 1017.5
20260906094555 60 0 0.0 0.0 0.00 0.00 0.00 56 1017.4
20260906094021 59 0 0.0 0.0 0.00 0.00 0.00 56 1017.4
20260906093516 60 0 0.0 0.0 0.00 0.00 0.00 57 1017.4
20260906093048 60 0 0.0 0.0 0.00 0.00 0.00 55 1017.5
20260906092520 61 0 0.0 0.0 0.00 0.00 0.00 55 1017.5
20260906092020 60 0 0.0 0.0 0.00 0.00 0.00 55 1017.6
20260906091534 60 0 0.0 0.0 0.00 0.00 0.00 55 1017.5
20260906091017 61 0 0.0 0.0 0.00 0.00 0.00 54 1017.5
20260906090518 61 0 0.0 0.0 0.00 0.00 0.00 53 1017.6
20260906090035 61 0 0.0 0.0 0.00 0.00 0.00 52 1017.5
20260906085520 62 0 0.0 0.0 0.00 0.00 0.00 52 1017.6
20260906085020 62 0 0.0 0.0 0.00 0.00 0.00 50 1017.6
20260906084534 63 0 0.0 0.0 0.00 0.00 0.00 50 1017.8
20260906084021 63 0 0.0 2.6 0.00 0.00 0.00 50 1017.8
20260906083518 63 0 0.0 2.6 0.00 0.00 0.00 50 1017.8
20260906083045 63 282 1.7 2.6 0.00 0.00 0.00 50 1017.9
20260906082517 62 283 1.7 2.6 0.00 0.00 0.00 51 1017.9
20260906082024 62 287 0.9 2.6 0.00 0.00 0.00 51 1017.9
20260906081538 62 283 0.0 1.7 0.00 0.00 0.00 51 1018.0
20260906081020 63 0 0.0 2.6 0.00 0.00 0.00 50 1018.0
20260906080520 63 0 0.9 2.6 0.00 0.00 0.00 50 1018.1
20260906080041 63 280 0.0 4.3 0.00 0.00 0.00 50 1018.2
20260906075517 63 278 0.9 4.3 0.00 0.00 0.00 49 1018.2
20260906075018 63 290 1.7 4.3 0.00 0.00 0.00 49 1018.2
20260906074535 64 338 0.9 3.5 0.00 0.00 0.00 48 1018.3
20260906074016 64 302 1.7 4.3 0.00 0.00 0.00 48 1018.3
20260906073518 64 330 1.7 4.3 0.00 0.00 0.00 48 1018.3
20260906073034 64 277 1.7 4.3 0.00 0.00 0.00 48 1018.4
20260906072518 64 295 1.7 4.3 0.00 0.00 0.00 48 1018.3
20260906072018 63 326 1.7 4.3 0.00 0.00 0.00 48 1018.4
20260906071537 63 319 2.6 4.3 0.00 0.00 0.00 48 1018.5
20260906071018 63 300 1.7 4.3 0.00 0.00 0.00 49 1018.4
20260906070520 63 300 0.9 3.5 0.00 0.00 0.00 49 1018.4
20260906070037 63 253 0.0 3.5 0.00 0.00 0.00 50 1018.4
20260906065517 63 283 0.9 3.5 0.00 0.00 0.00 49 1018.4
20260906065016 63 0 0.9 3.5 0.00 0.00 0.00 50 1018.4
20260906064534 62 293 0.9 3.5 0.00 0.00 0.00 50 1018.5
20260906064015 63 350 0.9 3.5 0.00 0.00 0.00 50 1018.5
20260906063519 63 301 1.7 3.5 0.00 0.00 0.00 49 1018.6
20260906063036 63 134 0.9 4.3 0.00 0.00 0.00 49 1018.6
20260906062518 64 308 0.9 4.3 0.00 0.00 0.00 47 1018.6
20260906062020 65 269 0.0 3.5 0.00 0.00 0.00 47 1018.7
20260906061538 65 241 0.9 4.3 0.00 0.00 0.00 46 1018.6
20260906061017 66 225 0.9 5.2 0.00 0.00 0.00 45 1018.7
20260906060523 66 285 1.7 5.2 0.00 0.00 0.00 45 1018.7
20260906060037 66 307 2.6 5.2 0.00 0.00 0.00 45 1018.7
20260906055520 65 279 2.6 4.3 0.00 0.00 0.00 46 1018.7
20260906055017 65 290 1.7 3.5 0.00 0.00 0.00 46 1018.8
20260906054539 65 136 0.9 2.6 0.00 0.00 0.00 45 1018.9
20260906054023 66 141 0.9 2.6 0.00 0.00 0.00 45 1018.8
20260906053519 66 8 0.9 3.5 0.00 0.00 0.00 44 1018.9
20260906053036 67 57 0.9 4.3 0.00 0.00 0.00 43 1018.8
20260906052520 67 285 1.7 6.1 0.00 0.00 0.00 43 1018.8
20260906052019 67 77 1.7 6.1 0.00 0.00 0.00 43 1018.8
20260906051548 67 297 2.6 5.2 0.00 0.00 0.00 43 1018.8
20260906051020 68 108 1.7 7.8 0.00 0.00 0.00 42 1018.9
20260906050522 67 1 3.5 7.8 0.00 0.00 0.00 42 1019.0
20260906050036 67 281 3.5 7.0 0.00 0.00 0.00 42 1019.0
20260906045521 67 181 1.7 5.2 0.00 0.00 0.00 42 1019.1
20260906045018 67 138 1.7 4.3 0.00 0.00 0.00 43 1019.1
20260906044535 67 340 1.7 4.3 0.00 0.00 0.00 43 1019.1
20260906044015 67 344 0.9 3.5 0.00 0.00 0.00 43 1019.1
20260906043518 68 241 0.0 3.5 0.00 0.00 0.00 43 1019.1
20260906043033 68 271 0.9 4.3 0.00 0.00 0.00 42 1019.0
20260906042520 68 115 0.9 4.3 0.00 0.00 0.00 41 1019.1
20260906042020 68 293 0.9 4.3 0.00 0.00 0.00 42 1019.1
20260906041537 68 283 1.7 4.3 0.00 0.00 0.00 42 1019.0
20260906041018 68 18 0.9 2.6 0.00 0.00 0.00 41 1018.8
20260906040518 68 32 0.9 4.3 0.00 0.00 0.00 41 1018.8
20260906040035 69 295 0.9 4.3 0.00 0.00 0.00 41 1018.8
20260906035519 68 285 0.9 4.3 0.00 0.00 0.00 41 1018.8
20260906035018 68 326 0.9 4.3 0.00 0.00 0.00 41 1018.8
20260906034535 68 302 0.9 4.3 0.00 0.00 0.00 41 1018.8
20260906034020 68 317 0.9 4.3 0.00 0.00 0.00 41 1018.8
20260906033520 68 294 1.7 4.3 0.00 0.00 0.00 41 1018.7
20260906033045 68 336 1.7 2.6 0.00 0.00 0.00 41 1018.7
20260906032518 68 323 0.9 2.6 0.00 0.00 0.00 41 1018.8
20260906032018 68 344 0.0 2.6 0.00 0.00 0.00 41 1018.6
20260906031539 69 345 0.9 4.3 0.00 0.00 0.00 41 1018.6
20260906031018 69 343 0.9 4.3 0.00 0.00 0.00 40 1018.6
20260906030518 69 300 1.7 5.2 0.00 0.00 0.00 40 1018.6
20260906030035 69 103 2.6 6.1 0.00 0.00 0.00 40 1018.5
20260906025516 69 289 2.6 6.1 0.00 0.00 0.00 40 1018.5
20260906025017 69 288 3.5 6.1 0.00 0.00 0.00 40 1018.5
20260906024547 69 319 1.7 4.3 0.00 0.00 0.00 40 1018.5
20260906024018 69 299 2.6 4.3 0.00 0.00 0.00 41 1018.4
20260906023520 69 302 1.7 4.3 0.00 0.00 0.00 40 1018.3
20260906023035 69 322 1.7 3.5 0.00 0.00 0.00 40 1018.3
20260906022517 69 283 1.7 3.5 0.00 0.00 0.00 41 1018.2
20260906022020 69 77 0.9 4.3 0.00 0.00 0.00 41 1018.2
20260906021538 69 298 1.7 4.3 0.00 0.00 0.00 40 1018.2
20260906021020 69 340 0.9 3.5 0.00 0.00 0.00 40 1018.2
20260906020520 69 288 0.9 2.6 0.00 0.00 0.00 40 1018.2
20260906020034 69 273 0.9 3.5 0.00 0.00 0.00 40 1018.2
20260906015515 70 347 0.9 4.3 0.00 0.00 0.00 40 1018.2
20260906015019 71 344 1.7 4.3 0.00 0.00 0.00 38 1018.2
20260906014549 71 241 0.9 3.5 0.00 0.00 0.00 39 1018.1
20260906014017 71 355 1.7 7.8 0.00 0.00 0.00 39 1018.2
20260906013517 72 257 2.6 7.8 0.00 0.00 0.00 38 1018.1
20260906013044 73 297 1.7 8.7 0.00 0.00 0.00 37 1018.0
20260906012519 73 119 2.6 8.7 0.00 0.00 0.00 36 1018.0
20260906012020 74 281 3.5 8.7 0.00 0.00 0.00 36 1017.9
20260906011540 74 269 4.3 9.6 0.00 0.00 0.00 36 1017.9
20260906011018 75 341 4.3 11.3 0.00 0.00 0.00 36 1017.8
20260906010518 76 319 7.0 11.3 0.00 0.00 0.00 35 1017.9
20260906010036 76 275 5.2 15.6 0.00 0.00 0.00 33 1017.9
20260906005517 77 322 5.2 15.6 0.00 0.00 0.00 33 1017.9
20260906005023 77 340 10.4 15.6 0.00 0.00 0.00 32 1017.7
20260906004534 78 349 10.4 15.6 0.00 0.00 0.00 32 1017.7
20260906004023 78 356 8.7 14.8 0.00 0.00 0.00 32 1017.7
20260906003516 79 274 6.1 13.9 0.00 0.00 0.00 31 1017.7
20260906003034 79 352 6.1 13.9 0.00 0.00 0.00 31 1017.7
20260906002519 79 345 7.0 14.8 0.00 0.00 0.00 31 1017.6
20260906002020 79 327 10.4 15.6 0.00 0.00 0.00 30 1017.5
20260906001534 80 356 11.3 15.6 0.00 0.00 0.00 29 1017.7
20260906001017 80 353 9.6 14.8 0.00 0.00 0.00 29 1017.7
20260906000517 80 340 7.0 13.0 0.00 0.00 0.00 29 1017.7
20260906000041 80 349 9.6 13.0 0.00 0.00 0.00 29 1017.6
20260905235520 80 330 7.0 13.0 0.00 0.00 0.00 29 1017.7
20260905235017 80 355 7.8 13.0 0.00 0.00 0.00 29 1017.7
20260905234538 80 357 6.1 13.0 0.00 0.00 0.00 29 1017.6
20260905234018 80 349 7.0 13.0 0.00 0.00 0.00 28 1017.6
20260905233520 80 4 7.8 14.8 0.00 0.00 0.00 28 1017.7
20260905233035 80 347 5.2 14.8 0.00 0.00 0.00 29 1017.6
20260905232518 81 348 7.0 14.8 0.00 0.00 0.00 29 1017.6
20260905232020 80 306 6.1 12.2 0.00 0.00 0.00 28 1017.6
20260905231535 80 326 7.0 12.2 0.00 0.00 0.00 29 1017.7
20260905231019 80 335 7.8 12.2 0.00 0.00 0.00 28 1017.6
20260905230517 81 6 5.2 12.2 0.00 0.00 0.00 29 1017.8
20260905230037 81 342 4.3 12.2 0.00 0.00 0.00 29 1017.8
20260905225517 80 259 4.3 11.3 0.00 0.00 0.00 29 1017.8
20260905225017 79 307 3.5 11.3 0.00 0.00 0.00 30 1017.9
20260905224535 79 342 6.1 11.3 0.00 0.00 0.00 29 1017.8
20260905224018 78 342 7.8 11.3 0.00 0.00 0.00 31 1017.8
20260905223515 79 345 4.3 13.0 0.00 0.00 0.00 29 1017.8
20260905223037 79 1 8.7 13.0 0.00 0.00 0.00 29 1017.9
20260905222519 79 344 6.1 13.0 0.00 0.00 0.00 29 1017.9
20260905222018 80 347 5.2 13.0 0.00 0.00 0.00 29 1017.8